• MPC Preparation (Info)

  • MPEC 2019-W150 : 2019 WO2

    The following Minor Planet Electronic Circular may be linked-to from your own Web pages, but must not otherwise be redistributed electronically.

    A form allowing access to any MPEC is at the bottom of this page.


    Read MPEC 2019-W149 Read MPEC 2019-W151


    M.P.E.C. 2019-W150                            Issued 2019 November 26, 21:49 UT
    
         The Minor Planet Electronic Circulars contain information on unusual
             minor planets and routine data on comets.  They are published
        on behalf of Division F of the International Astronomical Union by the
              Minor Planet Center, Smithsonian Astrophysical Observatory,
                              Cambridge, MA 02138, U.S.A.
    
                 Prepared using the Tamkin Foundation Computer Network
    
                                  MPC@CFA.HARVARD.EDU
                URL https://www.minorplanetcenter.net/    ISSN 1523-6714
    
                                    2019 WO2                                 
    
    
    Observations:
         K19W02O* C2019 11 25.21110923 56 07.367+39 27 57.34         20.67wUEW150F51
         K19W02O  C2019 11 25.22195023 56 08.574+39 28 05.84         21.28wUEW150F51
         K19W02O  C2019 11 25.23282123 56 09.770+39 28 13.93         21.50wUEW150F51
         K19W02O  C2019 11 25.24371623 56 10.960+39 28 21.79         21.22wUEW150F51
         K19W02O KC2019 11 25.73475023 57 44.20 +39 32 54.3          20.7 GVEW150L01
         K19W02O KC2019 11 25.73711323 57 44.52 +39 32 55.9          20.7 GVEW150L01
         K19W02O IC2019 11 25.73946623 57 44.85 +39 32 58.1          20.8 GVEW150L01
         K19W02O KC2019 11 25.74220923 57 45.26 +39 33 00.3          20.9 GVEW150L01
         K19W02O KC2019 11 25.84435 23 58 00.67 +39 34 07.8          21.3 GVEW150587
         K19W02O KC2019 11 25.84646 23 58 00.91 +39 34 09.8          21.2 GVEW150587
         K19W02O KC2019 11 25.84751 23 58 01.13 +39 34 10.0          21.3 GVEW150587
         K19W02O KC2019 11 25.93881123 58 17.403+39 35 53.49         21.1 GVEW150J04
         K19W02O KC2019 11 25.94321123 58 18.025+39 35 55.72         20.6 GVEW150J04
         K19W02O KC2019 11 25.94760823 58 18.646+39 35 57.80         20.8 GVEW150J04
         K19W02O KC2019 11 26.06785523 58 48.38 +39 37 06.2          20.8 VuEW150H21
         K19W02O KC2019 11 26.07076123 58 48.79 +39 37 08.3          21.2 VuEW150H21
         K19W02O KC2019 11 26.07511723 58 49.41 +39 37 11.1          20.9 VuEW150H21
         K19W02O  C2019 11 26.70777 00 01 13.10 +39 44 25.1          20.9 VVEW150033
         K19W02O  C2019 11 26.71070 00 01 13.62 +39 44 27.8          21.0 VVEW150033
         K19W02O  C2019 11 26.71364 00 01 14.15 +39 44 30.4          20.8 VVEW150033
    
    Observer details:
    033 Karl Schwarzschild Observatory, Tautenburg.  Observers C. Hoegner, S. 
       Melnikov, B. Stecklum.  Measurers S. Melnikov, B. Stecklum.  1.34-m f/3 
       Schmidt + CCD.
    587 Sormano.  Observers A. Fumagalli, P. Ghezzi, F. Manca, P. Sicoli, A. Testa. 
        Measurer P. Sicoli.  0.5-m f/6.8 reflector + CCD.
    F51 Pan-STARRS 1, Haleakala.  Observers J. Bulger, T. Lowe, A. Schultz, M. 
       Willman.  Measurers K. Chambers, S. Chastel, T. de Boer, L. Denneau, J. 
       Fairlamb, H. Flewelling, M. Huber, C.-C. Lin, E. Magnier, Y. Ramanjooloo, R. 
       Wainscoat, R. Weryk.  1.8-m Ritchey-Chretien + CCD.
    H21 Astronomical Research Observatory, Westfield.  Observer R. Holmes.  
        Measurers S. Foglia, L. Buzzi, T. Linder, R. Holmes.  0.76-m f/3.0 
       astrograph + CCD.
    J04 ESA Optical Ground Station, Tenerife.  Observer D. Abreu.  Measurers M. 
       Micheli, D. Koschny, M. Busch, A. Knofel, E. Schwab.  1.0-m f/4.4 
       reflector + CCD.
    L01 Visnjan Observatory, Tican.  Observer K. Korlevic.  1.0-m f/2.9 reflector + 
       CCD.
    
    Orbital elements:
    2019 WO2                                                 Earth MOID = 0.0120 AU
    Epoch 2020 May 31.0 TT = JDT 2459000.5                  Bell
    M  61.29029              (2000.0)            P               Q
    n   0.36877522     Peri.  188.98953     +0.07482459     -0.98918406
    a   1.9258756      Node   256.79302     +0.92277583     +0.11664114
    e   0.4842856      Incl.    7.44571     +0.37800270     -0.08893674
    P   2.67           H   25.1           G   0.15           U   7
    Residuals in seconds of arc
    191125 F51  0.1-  0.0     191125 L01  0.0   0.3+    191126 H21  0.1+  0.1-
    191125 F51  0.0   0.0     191125 587  0.4+  0.9-    191126 H21  0.1-  0.0
    191125 F51  0.0   0.0     191125 587  0.4-  0.1-    191126 H21  0.3-  0.2-
    191125 F51  0.0   0.1+    191125 587  0.4+  0.5-    191126 033  0.3+  0.2+
    191125 L01  0.1+  0.3+    191125 J04  0.1+  0.1+    191126 033  0.0   0.1+
    191125 L01  0.1-  0.0     191125 J04  0.1+  0.2+    191126 033  0.3-  0.1-
    191125 L01  0.2-  0.3+    191125 J04  0.0   0.3+
    
    Ephemeris:
    2019 WO2                 a,e,i = 1.93, 0.48, 7                   q = 0.9932
    Date    TT    R. A. (2000) Decl.     Delta      r    Elong.  Phase     V
    2019 10 27    23 54 12.5 +36 34 15   0.1963  1.1558   142.4    31.7    23.2
    ...
    2019 11 11    23 43 02.0 +37 52 58   0.1270  1.0792   131.9    43.0    22.5
    ...
    2019 11 19    23 45 09.6 +38 35 22   0.09196 1.0464   127.1    48.9    21.8
    ...
    2019 11 25    23 55 27.6 +39 24 59   0.06602 1.0264   124.9    52.1    21.2
    2019 11 26    23 58 34.5 +39 36 16   0.06172 1.0235   124.8    52.4    21.0
    2019 11 27    00 02 18.9 +39 48 48   0.05743 1.0207   124.8    52.6    20.9
    ...
    2019 12 03    00 51 32.1 +41 33 55   0.03219 1.0067   129.7    48.9    19.5
    ...
    2019 12 11    07 12 13.9 +03 34 04   0.01338 0.9956   144.5    35.0    17.2
    ...
    2019 12 26    10 16 09.2 -31 05 33   0.07132 0.9993   100.8    75.2    22.0
    
    A. U. Tomatic                (C) Copyright 2019 MPC           M.P.E.C. 2019-W150
    


    Read MPEC 2019-W149 Read MPEC 2019-W151


    MPEC number:

    Enter an MPEC number in one of the following forms:

    • 1997-B01 (the full form)
    • J97B01 (the packed version of the full form)
    • B01 (the abbreviated form)